• In Belarus
  • List of Countries
  • For 7 days
  • Water Temperature
  • Satellite Maps
  • Weather Map
  • Weather Widgets
  • user-avatar
    Login

    Hourly Weather Hasselt

    Today, 20 March, Wednesday

    Time Temperature Precipitation Wind Pressure Humidity
    00:00 +5°C° 0 mm 2 mps 770 mmHg 82%
    01:00 +5°C° 0 mm 2 mps 770 mmHg 84%
    02:00 +4°C° 0 mm 2 mps 770 mmHg 87%
    03:00 +4°C° 0 mm 2 mps 770 mmHg 89%
    04:00 +4°C° 0 mm 2 mps 770 mmHg 90%
    05:00 +4°C° 0 mm 2 mps 771 mmHg 91%
    06:00 +4°C° 0 mm 2 mps 771 mmHg 92%
    07:00 +4°C° 0 mm 3 mps 771 mmHg 87%
    08:00 +7°C° 0 mm 3 mps 771 mmHg 82%
    09:00 +9°C° 0 mm 3 mps 771 mmHg 78%
    10:00 +10°C° 0 mm 3 mps 771 mmHg 73%
    11:00 +11°C° 0 mm 3 mps 771 mmHg 69%
    12:00 +13°C° 0 mm 3 mps 771 mmHg 64%
    13:00 +14°C° 0 mm 2 mps 771 mmHg 64%
    14:00 +14°C° 0 mm 2 mps 771 mmHg 64%
    15:00 +14°C° 0 mm 2 mps 771 mmHg 64%
    16:00 +13°C° 0 mm 2 mps 771 mmHg 68%
    17:00 +13°C° 0 mm 1 mps 771 mmHg 72%
    18:00 +12°C° 0 mm 1 mps 771 mmHg 76%
    19:00 +11°C° 0 mm 1 mps 772 mmHg 79%
    20:00 +10°C° 0 mm 1 mps 772 mmHg 82%
    21:00 +10°C° 0 mm 1 mps 772 mmHg 85%
    22:00 +9°C° 0 mm 1 mps 772 mmHg 87%
    23:00 +9°C° 0 mm 1 mps 773 mmHg 88%

    Tomorrow, 21 March, Thursday

    Time Temperature Precipitation Wind Pressure Humidity
    00:00 +8°C° 0 mm 1 mps 773 mmHg 90%
    01:00 +8°C° 0 mm 1 mps 772 mmHg 90%
    02:00 +8°C° 0 mm 1 mps 772 mmHg 91%
    03:00 +7°C° 0 mm 1 mps 772 mmHg 91%
    04:00 +7°C° 0 mm 1 mps 772 mmHg 91%
    05:00 +7°C° 0 mm 1 mps 772 mmHg 91%
    06:00 +7°C° 0 mm 1 mps 772 mmHg 91%
    07:00 +9°C° 0 mm 1 mps 772 mmHg 84%
    08:00 +11°C° 0 mm 1 mps 772 mmHg 77%
    09:00 +12°C° 0 mm 1 mps 772 mmHg 69%
    10:00 +14°C° 0 mm 1 mps 772 mmHg 65%
    11:00 +15°C° 0 mm 1 mps 772 mmHg 60%
    12:00 +16°C° 0 mm 1 mps 772 mmHg 56%
    13:00 +16°C° 0 mm 1 mps 771 mmHg 55%
    14:00 +18°C° 0 mm 1 mps 771 mmHg 55%
    15:00 +18°C° 0 mm 1 mps 770 mmHg 54%
    16:00 +16°C° 0 mm 1 mps 770 mmHg 60%
    17:00 +13°C° 0 mm 0 mps 770 mmHg 66%
    18:00 +12°C° 0 mm 0 mps 770 mmHg 72%
    19:00 +11°C° 0 mm 0 mps 770 mmHg 75%
    20:00 +10°C° 0 mm 0 mps 771 mmHg 78%
    21:00 +10°C° 0 mm 0 mps 771 mmHg 81%
    22:00 +9°C° 0 mm 0 mps 771 mmHg 82%
    23:00 +9°C° 0 mm 0 mps 770 mmHg 83%

    Day after tomorrow, 22 March, Friday

    Time Temperature Precipitation Wind Pressure Humidity
    00:00 +9°C° 0 mm 0 mps 770 mmHg 85%
    01:00 +9°C° 0 mm 1 mps 770 mmHg 84%
    02:00 +9°C° 0 mm 1 mps 770 mmHg 83%
    03:00 +9°C° 0 mm 1 mps 770 mmHg 82%
    04:00 +8°C° 0 mm 1 mps 770 mmHg 81%
    05:00 +8°C° 0 mm 1 mps 769 mmHg 79%
    06:00 +8°C° 0 mm 1 mps 769 mmHg 78%
    07:00 +10°C° 0 mm 1 mps 769 mmHg 70%
    08:00 +12°C° 0 mm 1 mps 769 mmHg 63%
    09:00 +14°C° 0 mm 1 mps 769 mmHg 55%
    10:00 +15°C° 0 mm 1 mps 769 mmHg 51%
    11:00 +16°C° 0 mm 1 mps 768 mmHg 46%
    12:00 +19°C° 0 mm 1 mps 768 mmHg 42%
    13:00 +18°C° 0 mm 2 mps 767 mmHg 41%
    14:00 +19°C° 0 mm 2 mps 767 mmHg 41%
    15:00 +19°C° 0 mm 2 mps 766 mmHg 40%
    16:00 +17°C° 0 mm 2 mps 766 mmHg 46%
    17:00 +16°C° 0 mm 1 mps 766 mmHg 52%
    18:00 +14°C° 0 mm 1 mps 766 mmHg 58%
    19:00 +13°C° 0 mm 1 mps 767 mmHg 61%
    20:00 +12°C° 0 mm 1 mps 767 mmHg 65%
    21:00 +12°C° 0 mm 1 mps 768 mmHg 69%
    22:00 +11°C° 0 mm 1 mps 768 mmHg 73%
    23:00 +10°C° 0 mm 1 mps 768 mmHg 78%

    23 March, Saturday

    Time Temperature Precipitation Wind Pressure Humidity
    00:00 +10°C° 0 mm 1 mps 768 mmHg 83%
    01:00 +9°C° 0 mm 1 mps 768 mmHg 85%
    02:00 +9°C° 0 mm 1 mps 768 mmHg 87%
    03:00 +8°C° 0 mm 1 mps 768 mmHg 89%
    04:00 +8°C° 0 mm 1 mps 768 mmHg 90%
    05:00 +8°C° 0 mm 1 mps 769 mmHg 92%
    06:00 +8°C° 0 mm 1 mps 769 mmHg 93%
    07:00 +10°C° 0 mm 1 mps 769 mmHg 89%
    08:00 +11°C° 0 mm 1 mps 769 mmHg 86%
    09:00 +12°C° 0 mm 1 mps 770 mmHg 82%
    10:00 +13°C° 0 mm 2 mps 770 mmHg 80%
    11:00 +13°C° 0 mm 3 mps 770 mmHg 78%
    12:00 +14°C° 0 mm 4 mps 770 mmHg 76%
    13:00 +13°C° 0 mm 4 mps 770 mmHg 74%
    14:00 +13°C° 0 mm 4 mps 770 mmHg 73%
    15:00 +13°C° 0 mm 5 mps 769 mmHg 72%
    16:00 +11°C° 0 mm 4 mps 769 mmHg 73%
    17:00 +10°C° 0 mm 4 mps 770 mmHg 74%
    18:00 +9°C° 0 mm 3 mps 770 mmHg 75%
    19:00 +9°C° 0 mm 3 mps 770 mmHg 75%
    20:00 +8°C° 0 mm 3 mps 770 mmHg 74%
    21:00 +7°C° 0 mm 3 mps 770 mmHg 74%
    22:00 +7°C° 0 mm 3 mps 770 mmHg 75%
    23:00 +7°C° 0 mm 3 mps 770 mmHg 75%

    24 March, Sunday

    Time Temperature Precipitation Wind Pressure Humidity
    00:00 +5°C° 0 mm 3 mps 770 mmHg 76%
    01:00 +5°C° 0 mm 3 mps 770 mmHg 75%
    02:00 +4°C° 0 mm 3 mps 770 mmHg 75%
    03:00 +4°C° 0 mm 3 mps 769 mmHg 74%
    04:00 +4°C° 0 mm 3 mps 769 mmHg 75%
    05:00 +4°C° 0 mm 2 mps 769 mmHg 75%
    06:00 +4°C° 0 mm 2 mps 769 mmHg 75%
    07:00 +5°C° 0 mm 2 mps 769 mmHg 72%
    08:00 +7°C° 0 mm 2 mps 769 mmHg 68%
    09:00 +8°C° 0 mm 2 mps 769 mmHg 64%
    10:00 +10°C° 0 mm 3 mps 769 mmHg 61%
    11:00 +11°C° 0 mm 3 mps 769 mmHg 57%
    12:00 +12°C° 0 mm 3 mps 768 mmHg 53%
    13:00 +13°C° 0 mm 3 mps 768 mmHg 50%
    14:00 +13°C° 0 mm 3 mps 768 mmHg 46%
    15:00 +13°C° 0 mm 3 mps 768 mmHg 42%
    16:00 +11°C° 0 mm 3 mps 768 mmHg 47%
    17:00 +10°C° 0 mm 3 mps 768 mmHg 51%
    18:00 +8°C° 0 mm 3 mps 768 mmHg 56%
    19:00 +7°C° 0 mm 3 mps 769 mmHg 59%
    20:00 +6°C° 0 mm 2 mps 769 mmHg 62%
    21:00 +5°C° 0 mm 2 mps 769 mmHg 65%
    22:00 +4°C° 0 mm 2 mps 769 mmHg 68%
    23:00 +4°C° 0 mm 2 mps 769 mmHg 71%

    25 March, Monday

    Time Temperature Precipitation Wind Pressure Humidity
    00:00 +4°C° 0 mm 1 mps 769 mmHg 74%
    01:00 +4°C° 0 mm 1 mps 769 mmHg 76%
    02:00 +3°C° 0 mm 2 mps 768 mmHg 78%
    03:00 +3°C° 0 mm 2 mps 768 mmHg 80%
    04:00 +3°C° 0 mm 2 mps 768 mmHg 82%
    05:00 +3°C° 0 mm 2 mps 768 mmHg 85%
    06:00 +3°C° 0 mm 2 mps 768 mmHg 87%
    07:00 +4°C° 0 mm 3 mps 768 mmHg 82%
    08:00 +6°C° 0 mm 4 mps 768 mmHg 77%
    09:00 +8°C° 0 mm 5 mps 768 mmHg 72%
    10:00 +8°C° 0 mm 5 mps 768 mmHg 71%
    11:00 +8°C° 0 mm 5 mps 767 mmHg 71%
    12:00 +8°C° 0 mm 5 mps 767 mmHg 70%
    13:00 +8°C° 0 mm 5 mps 767 mmHg 67%
    14:00 +9°C° 0 mm 5 mps 767 mmHg 64%
    15:00 +9°C° 0 mm 6 mps 766 mmHg 61%
    16:00 +8°C° 0.1 mm 5 mps 767 mmHg 65%
    17:00 +7°C° 0.1 mm 5 mps 767 mmHg 69%
    18:00 +6°C° 0.1 mm 4 mps 767 mmHg 73%
    19:00 +5°C° 0 mm 4 mps 767 mmHg 73%
    20:00 +4°C° 0 mm 4 mps 768 mmHg 73%
    21:00 +3°C° 0 mm 3 mps 768 mmHg 73%
    22:00 +3°C° 0 mm 3 mps 768 mmHg 72%
    23:00 +3°C° 0 mm 3 mps 768 mmHg 70%
    Show more